Regional Weather Roundup
Issued by NWS

Home | Current Version | Previous Version | Graphics & Text | Print | Product List | Glossary On
Versions: 1 2 3 4 5 6 7 8 9 10 11 12 13 14 15 16 17 18 19 20 21 22 23 24 25 26 27 28 29 30 31 32 33 34 35 36 37 38 39 40 41 42 43 44 45 46 47 48 49 50
000
ASUS43 KIND 270459
RWRIN

WEATHER ROUNDUP FOR INDIANA
NATIONAL WEATHER SERVICE INDIANAPOLIS IN
100 AM EDT MON APR 27 2015

NOTE: "FAIR" INDICATES FEW OR NO CLOUDS BELOW 12,000 FEET WITH NO
SIGNIFICANT WEATHER AND/OR OBSTRUCTIONS TO VISIBILITY.

* - STATION DOES NOT REPORT WEATHER SUCH AS PRECIPITATION OR FOG.

+ - STATION NOT QUALITY CONTROLLED BY THE NATIONAL WEATHER SERVICE.
    USE DATA WITH CAUTION...ESPECIALLY DEWPOINT AND RELATIVE
    HUMIDITY OBSERVATIONS.

INZ001>003-010>013-019-020-270600-
NORTHWEST INDIANA

CITY           SKY/WX    TMP DP  RH WIND       PRES   REMARKS

$$

LMZ046-743>745-270600-
SOUTHERN LAKE MICHIGAN

STATION/POSITION TIME  TEMP    WIND        PRES    WAVE
                       AIR SEA DIR/SP/G            HT
                 (UTC) (F)     (DEG/KT/KT) (MB)    (FT)
BURNS HARBOR     0400   43     350/ 16/ 20 1016.9S
MICHIGAN CITY    0400   41     320/ 18/ 19   N/A
5NW MICH CITY    0400   42 45  350/ 16/ 19   N/A     4

$$

INZ004-005-014>016-021>024-270600-
NORTH CENTRAL INDIANA

CITY           SKY/WX    TMP DP  RH WIND       PRES   REMARKS
GOSHEN         CLEAR     39  27  62 NW8       29.96R
SOUTH BEND     CLEAR     40  29  64 NW9       29.99R

$$

INZ006>009-017-018-025>027-270600-
NORTHEAST INDIANA

CITY           SKY/WX    TMP DP  RH WIND       PRES   REMARKS
ANGOLA *+      CLEAR     45  30  57 N6        29.94R
FORT WAYNE     MOCLDY    47  32  56 NW7       29.94S

$$

INZ028-029-035-036-043>045-051>053-270600-
WEST CENTRAL INDIANA

CITY           SKY/WX    TMP DP  RH WIND       PRES   REMARKS
CRAWFORDSVL +  CLEAR     37  26  65 NW8       29.99S
GREENCASTLE +  CLEAR     43  27  52 N8        29.99S
LAFAYETTE      CLEAR     39  28  64 NW5       30.00R
TERRE HAUTE    CLEAR     45  32  60 N7        30.00S

$$

INZ030>032-037>040-046>048-054>057-064-065-270600-
CENTRAL INDIANA

CITY           SKY/WX    TMP DP  RH WIND       PRES   REMARKS
GREENWOOD *+   CLEAR     45  28  53 N8        29.97R
INDIANAPOLIS   PTCLDY    43  30  60 NW10      29.96R
-EAGLE CREEK   CLEAR     44  31  60 NW9       29.96S
KOKOMO *+      CLEAR     41  30  65 NW8       29.97R
MT COMFORT *+  CLEAR     43  27  52 N8        29.96S
SHELBYVILLE    CLEAR     46  35  65 NW10      29.95R

$$

INZ033-034-041-042-049-050-058-059-270600-
EAST CENTRAL INDIANA

CITY           SKY/WX    TMP DP  RH WIND       PRES   REMARKS
MUNCIE         CLOUDY    47  35  63 NW7       29.94S

$$

INZ060-061-067>069-081>083-085>088-270600-
SOUTHWEST INDIANA

CITY           SKY/WX    TMP DP  RH WIND       PRES   REMARKS
EVANSVILLE     CLEAR     50  37  61 N6        29.99R
HUNTINGBURG *+ CLEAR     46  36  66 N7        29.97S

$$

INZ062-063-066-070>080-084-089>092-270600-
SOUTH CENTRAL AND SOUTHEAST INDIANA

CITY           SKY/WX    TMP DP  RH WIND       PRES   REMARKS
BLOOMINGTON    CLEAR     44  34  67 N7        29.97S
MADISON *+     MOCLDY    43  36  75 CALM      29.95R
SEYMOUR +      PTCLDY    48  37  66 NW8       29.95R

$$



USA.gov is the U.S. government's official web portal to all federal, state and local government web resources and services.